Location: Unspecified
(0.0000°N, 0.0000°E)
Time: 06:41:05
(UTC+00:00)

Courier 1B - Pass Details

Date: 27 September 2023
Orbit: 962 x 1208 km, 28.3° (Epoch: 06 December)

Event Time Altitude Azimuth Distance (km) Brightness Sun altitude
Rises 19:28:33 0° 313° (NW) 4,023 11.4 -24.4°
Reaches altitude 10° 19:31:36 10° 320° (NW) 3,030 10.5 -25.1°
Maximum altitude 19:38:33 41° 28° (NNE) 1,531 8.2 -26.9°
Enters shadow 19:38:41 41° 31° (NNE) 1,531 8.2 -26.9°
Drops below altitude 10° 19:45:07 10° 97° (E) 2,863 - -28.5°
Sets 19:47:55 0° 104° (ESE) 3,780 - -29.2°
